START_TIME,STEP,MOV.,H8,t_acc.,H43,t_acc.,M25,t_acc.,H9,t_acc.
1979-07-26 15:00:28.820 ,1,0,0.,12.0,0.,12.0,0.,12.0,0.,12.0
1979-07-26 15:00:40.820 ,1,0,0.,12.0,0.,12.0,0.,12.0,0.,12.0
1979-07-26 15:00:52.820 ,2,0,0.,12.0,0.,12.0,0.,12.0,0.,12.0
1979-07-26 15:01:04.820 ,2,0,0.,12.0,0.,12.0,0.,12.0,0.,12.0
1979-07-26 15:01:16.820 ,2,0,0.,12.0,0.,12.0,0.,12.0,0.,12.0
1979-07-26 15:01:28.820 ,2,0,0.,12.0,0.,12.0,0.,12.0,0.,12.0
1979-07-26 15:01:40.820 ,3,0,0.,12.0,0.,12.0,0.,12.0,0.,12.0
1979-07-26 15:01:52.820 ,3,0,0.,12.0,0.,12.0,0.,12.0,0.,12.0
1979-07-26 15:02:04.820 ,3,0,0.,12.0,0.,12.0,0.,12.0,0.,12.0
1979-07-26 15:02:16.820 ,3,0,0.,12.0,0.,12.0,0.,12.0,0.,12.0
1979-07-26 15:02:28.820 ,4,0,0.,12.0,0.,12.0,0.,12.0,0.,12.0
1979-07-26 15:02:40.820 ,4,0,0.,12.0,0.,12.0,0.,12.0,0.,12.0
1979-07-26 15:02:52.820 ,4,0,0.,12.0,0.,12.0,0.,12.0,0.,12.0
1979-07-26 15:03:04.820 ,4,0,0.,12.0,0.,12.0,0.,12.0,0.,12.0
1979-07-26 15:03:16.820 ,5,0,0.,12.0,0.,12.0,0.,12.0,0.,12.0
1979-07-26 15:03:28.820 ,5,0,0.,12.0,0.,12.0,0.,12.0,0.,12.0
1979-07-26 15:03:40.820 ,5,0,0.,12.0,0.,12.0,0.,12.0,0.,12.0
1979-07-26 15:03:52.820 ,5,0,0.,12.0,0.,12.0,0.,12.0,0.,12.0
1979-07-26 15:04:04.820 ,6,0,0.,12.0,0.,12.0,0.,12.0,0.,12.0
1979-07-26 15:04:16.820 ,6,0,0.,12.0,0.,12.0,0.,12.0,0.,12.0
1979-07-26 15:04:28.820 ,6,0,0.,12.0,0.,12.0,0.,12.0,0.,12.0
1979-07-26 15:04:40.820 ,6,0,0.,12.0,0.,12.0,0.,12.0,0.,12.0
1979-07-26 15:04:52.820 ,7,0,0.,12.0,0.,12.0,0.,12.0,0.,12.0
1979-07-26 15:05:04.820 ,7,0,0.,12.0,0.,12.0,0.,12.0,0.,12.0
1979-07-26 15:05:16.820 ,7,0,0.,12.0,0.,12.0,0.,12.0,0.,12.0
1979-07-26 15:05:28.820 ,7,0,0.,12.0,0.,12.0,0.,12.0,0.,12.0
1979-07-26 15:05:40.820 ,7,0,0.,12.0,0.,12.0,0.,12.0,0.,12.0
1979-07-26 15:05:52.820 ,7,0,0.,12.0,0.,12.0,0.,12.0,0.,12.0
1979-07-26 15:06:04.820 ,7,0,0.,12.0,0.,12.0,0.,12.0,0.,12.0
1979-07-26 15:06:16.820 ,7,0,0.,12.0,0.,12.0,0.,12.0,0.,12.0
1979-07-26 15:06:28.820 ,6,0,0.,12.0,0.,12.0,0.,12.0,0.,12.0
1979-07-26 15:06:40.820 ,6,0,0.,12.0,0.,12.0,0.,12.0,0.,12.0
1979-07-26 15:06:52.820 ,6,0,0.,12.0,0.,12.0,0.,12.0,0.,12.0
1979-07-26 15:07:04.820 ,6,0,0.,12.0,0.,12.0,0.,12.0,0.,12.0
1979-07-26 15:07:16.820 ,5,0,0.,12.0,0.,12.0,0.,12.0,0.,12.0
1979-07-26 15:07:28.820 ,5,0,0.,12.0,0.,12.0,0.,12.0,0.,12.0
1979-07-26 15:07:40.820 ,5,0,0.,12.0,0.,12.0,0.,12.0,0.,12.0
1979-07-26 15:07:52.820 ,5,0,0.,12.0,0.,12.0,0.,12.0,0.,12.0
1979-07-26 15:08:04.820 ,4,0,0.,12.0,0.,12.0,0.,12.0,0.,12.0
1979-07-26 15:08:16.820 ,4,0,0.,12.0,0.,12.0,0.,12.0,0.,12.0
1979-07-26 15:08:28.820 ,4,0,0.,12.0,0.,12.0,0.,12.0,0.,12.0
1979-07-26 15:08:40.820 ,4,0,0.,12.0,0.,12.0,0.,12.0,0.,12.0
1979-07-26 15:08:52.820 ,3,0,0.,12.0,0.,12.0,0.,12.0,0.,12.0
1979-07-26 15:09:04.820 ,3,0,0.,12.0,0.,12.0,0.,12.0,0.,12.0
1979-07-26 15:09:16.820 ,3,0,0.,12.0,0.,12.0,0.,12.0,0.,12.0
1979-07-26 15:09:28.820 ,3,0,0.,12.0,0.,12.0,0.,12.0,0.,12.0
1979-07-26 15:09:40.820 ,2,0,0.,12.0,0.,12.0,0.,12.0,0.,12.0
1979-07-26 15:09:52.820 ,2,0,0.,12.0,0.,12.0,0.,12.0,0.,12.0
1979-07-26 15:10:04.820 ,2,0,0.,12.0,0.,12.0,0.,12.0,0.,12.0
1979-07-26 15:10:16.820 ,2,0,0.,12.0,0.,12.0,0.,12.0,0.,12.0
1979-07-26 15:10:28.820 ,1,0,0.,12.0,0.,12.0,0.,12.0,0.,12.0
1979-07-26 15:10:40.820 ,1,0,0.,12.0,0.,12.0,0.,12.0,0.,12.0
1979-07-26 15:10:52.820 ,1,0,0.,12.0,0.,12.0,0.,12.0,0.,12.0
1979-07-26 15:11:04.820 ,1,0,0.,12.0,0.,12.0,0.,12.0,0.,12.0
1979-07-26 15:11:16.820 ,0,0,0.,12.0,0.,12.0,0.,12.0,0.,12.0
1979-07-26 15:11:28.820 ,0,0,0.,12.0,0.,12.0,0.,12.0,0.,12.0
1979-07-26 15:11:40.820 ,0,0,0.,12.0,0.,12.0,0.,12.0,0.,12.0
1979-07-26 15:11:52.820 ,0,0,0.,12.0,0.,12.0,0.,12.0,0.,12.0
1979-07-26 15:12:04.820 ,0,0,0.,12.0,0.,12.0,0.,12.0,0.,12.0
1979-07-26 15:12:16.820 ,0,0,1.,12.0,0.,12.0,0.,12.0,0.,12.0
1979-07-26 15:12:28.820 ,0,0,0.,12.0,0.,12.0,0.,12.0,0.,12.0
1979-07-26 15:12:40.820 ,0,0,0.,12.0,0.,12.0,0.,12.0,0.,12.0
1979-07-26 15:12:52.820 ,1,0,0.,12.0,0.,12.0,0.,12.0,0.,12.0
1979-07-26 15:13:04.820 ,1,0,0.,12.0,0.,12.0,0.,12.0,0.,12.0
1979-07-26 15:13:16.820 ,1,0,0.,12.0,0.,12.0,0.,12.0,0.,12.0
1979-07-26 15:13:28.820 ,1,0,0.,12.0,0.,12.0,0.,12.0,0.,12.0
1979-07-26 15:13:40.820 ,2,0,0.,12.0,0.,12.0,0.,12.0,0.,12.0
1979-07-26 15:13:52.820 ,2,0,0.,12.0,0.,12.0,0.,12.0,0.,12.0
1979-07-26 15:14:04.820 ,2,0,0.,12.0,0.,12.0,0.,12.0,0.,12.0
1979-07-26 15:14:16.820 ,2,0,0.,12.0,0.,12.0,0.,12.0,0.,12.0
1979-07-26 15:14:28.820 ,3,0,0.,12.0,0.,12.0,0.,12.0,0.,12.0
1979-07-26 15:14:40.820 ,3,0,0.,12.0,0.,12.0,0.,12.0,0.,12.0
1979-07-26 15:14:52.820 ,3,0,0.,12.0,0.,12.0,0.,12.0,0.,12.0
1979-07-26 15:15:04.820 ,3,0,0.,12.0,0.,12.0,0.,12.0,0.,12.0
1979-07-26 15:15:16.820 ,4,0,0.,12.0,0.,12.0,0.,12.0,0.,12.0
1979-07-26 15:15:28.820 ,4,0,0.,12.0,0.,12.0,0.,12.0,0.,12.0
1979-07-26 15:15:40.820 ,4,0,0.,12.0,0.,12.0,0.,12.0,0.,12.0
1979-07-26 15:15:52.820 ,4,0,0.,12.0,0.,12.0,0.,12.0,0.,12.0
1979-07-26 15:16:04.820 ,5,0,0.,12.0,0.,12.0,0.,12.0,0.,12.0
1979-07-26 15:16:16.820 ,5,0,0.,12.0,0.,12.0,0.,12.0,0.,12.0
1979-07-26 15:16:28.820 ,5,0,0.,12.0,0.,12.0,0.,12.0,0.,12.0
1979-07-26 15:16:40.820 ,5,0,0.,12.0,0.,12.0,0.,12.0,0.,12.0
1979-07-26 15:16:52.820 ,6,0,0.,12.0,0.,12.0,0.,12.0,0.,12.0
1979-07-26 15:17:04.820 ,6,0,0.,12.0,0.,12.0,0.,12.0,0.,12.0
1979-07-26 15:17:16.820 ,6,0,0.,12.0,0.,12.0,0.,12.0,0.,12.0
1979-07-26 15:17:28.820 ,6,0,0.,12.0,0.,12.0,0.,12.0,0.,12.0
1979-07-26 15:17:40.820 ,7,0,0.,12.0,0.,12.0,0.,12.0,0.,12.0
1979-07-26 15:17:52.820 ,7,0,0.,12.0,0.,12.0,0.,12.0,0.,12.0
1979-07-26 15:18:04.820 ,7,0,0.,12.0,0.,12.0,0.,12.0,0.,12.0
1979-07-26 15:18:16.820 ,7,0,0.,12.0,0.,12.0,0.,12.0,0.,12.0
1979-07-26 15:18:28.820 ,7,0,0.,12.0,0.,12.0,0.,12.0,0.,12.0
1979-07-26 15:18:40.820 ,7,0,0.,12.0,0.,12.0,0.,12.0,0.,12.0
1979-07-26 15:18:52.820 ,7,0,0.,12.0,0.,12.0,0.,12.0,0.,12.0
1979-07-26 15:19:04.820 ,7,0,0.,12.0,0.,12.0,0.,12.0,0.,12.0
1979-07-26 15:19:16.820 ,6,0,0.,12.0,0.,12.0,0.,12.0,0.,12.0
1979-07-26 15:19:28.820 ,6,0,0.,12.0,0.,12.0,0.,12.0,0.,12.0
1979-07-26 15:19:40.820 ,6,0,0.,12.0,0.,12.0,0.,12.0,0.,12.0
1979-07-26 15:19:52.820 ,6,0,0.,12.0,0.,12.0,0.,12.0,0.,12.0
1979-07-26 15:20:04.820 ,5,0,0.,12.0,0.,12.0,0.,12.0,0.,12.0
1979-07-26 15:20:16.820 ,5,0,0.,12.0,0.,12.0,0.,12.0,0.,12.0
1979-07-26 15:20:28.820 ,5,0,0.,12.0,0.,12.0,0.,12.0,0.,12.0
1979-07-26 15:20:40.820 ,5,0,0.,12.0,0.,12.0,0.,12.0,0.,12.0
1979-07-26 15:20:52.820 ,4,0,0.,12.0,0.,12.0,0.,12.0,0.,12.0
1979-07-26 15:21:04.820 ,4,0,0.,12.0,0.,12.0,0.,12.0,0.,12.0
1979-07-26 15:21:16.820 ,4,0,0.,12.0,0.,12.0,0.,12.0,0.,12.0
1979-07-26 15:21:28.820 ,4,0,0.,12.0,0.,12.0,0.,12.0,0.,12.0
1979-07-26 15:21:40.820 ,3,0,0.,12.0,0.,12.0,0.,12.0,0.,12.0
1979-07-26 15:21:52.820 ,3,0,0.,12.0,0.,12.0,0.,12.0,0.,12.0
1979-07-26 15:22:04.820 ,3,0,0.,12.0,0.,12.0,0.,12.0,0.,12.0
1979-07-26 15:22:16.820 ,3,0,0.,12.0,0.,12.0,0.,12.0,0.,12.0
1979-07-26 15:22:28.820 ,2,0,0.,12.0,0.,12.0,0.,12.0,0.,12.0
1979-07-26 15:22:40.820 ,2,0,0.,12.0,0.,12.0,0.,12.0,0.,12.0
1979-07-26 15:22:52.820 ,2,0,0.,12.0,0.,12.0,0.,12.0,0.,12.0
1979-07-26 15:23:04.820 ,2,0,0.,12.0,0.,12.0,0.,12.0,0.,12.0
1979-07-26 15:23:16.820 ,1,0,0.,12.0,0.,12.0,0.,12.0,0.,12.0
1979-07-26 15:23:28.820 ,1,0,0.,12.0,0.,12.0,0.,12.0,0.,12.0
1979-07-26 15:23:40.820 ,1,0,0.,12.0,0.,12.0,0.,12.0,0.,12.0
1979-07-26 15:23:52.820 ,1,0,0.,12.0,0.,12.0,0.,12.0,0.,12.0
1979-07-26 15:24:04.820 ,0,0,0.,12.0,0.,12.0,0.,12.0,0.,12.0
1979-07-26 15:24:16.820 ,0,0,0.,12.0,0.,12.0,0.,12.0,0.,12.0
1979-07-26 15:24:28.820 ,0,0,0.,12.0,0.,12.0,0.,12.0,0.,12.0
1979-07-26 15:24:40.820 ,0,0,0.,12.0,0.,12.0,0.,12.0,0.,12.0
1979-07-26 15:24:52.820 ,0,0,0.,12.0,0.,12.0,0.,12.0,0.,12.0
1979-07-26 15:25:04.820 ,0,0,0.,12.0,0.,12.0,0.,12.0,0.,12.0
1979-07-26 15:25:16.820 ,0,0,0.,12.0,0.,12.0,0.,12.0,0.,12.0
1979-07-26 15:25:28.820 ,0,0,0.,12.0,0.,12.0,0.,12.0,0.,12.0
1979-07-26 15:25:40.820 ,1,0,0.,12.0,0.,12.0,0.,12.0,0.,12.0
1979-07-26 15:25:52.820 ,1,0,0.,12.0,0.,12.0,0.,12.0,0.,12.0
1979-07-26 15:26:04.820 ,1,0,0.,12.0,0.,12.0,0.,12.0,0.,12.0
1979-07-26 15:26:16.820 ,1,0,0.,12.0,0.,12.0,0.,12.0,0.,12.0
1979-07-26 15:26:28.820 ,2,0,0.,12.0,0.,12.0,0.,12.0,0.,12.0
1979-07-26 15:26:40.820 ,2,0,0.,12.0,0.,12.0,0.,12.0,0.,12.0
1979-07-26 15:26:52.820 ,2,0,0.,12.0,0.,12.0,0.,12.0,0.,12.0
1979-07-26 15:27:04.820 ,2,0,0.,12.0,0.,12.0,0.,12.0,0.,12.0
1979-07-26 15:27:16.820 ,3,0,0.,12.0,0.,12.0,0.,12.0,0.,12.0
1979-07-26 15:27:28.820 ,3,0,0.,12.0,0.,12.0,0.,12.0,0.,12.0
1979-07-26 15:27:40.820 ,3,0,1.,12.0,0.,12.0,0.,12.0,0.,12.0
1979-07-26 15:27:52.820 ,3,0,0.,12.0,0.,12.0,0.,12.0,0.,12.0
1979-07-26 15:28:04.820 ,4,0,0.,12.0,0.,12.0,0.,12.0,0.,12.0
1979-07-26 15:28:16.820 ,4,0,0.,12.0,0.,12.0,0.,12.0,0.,12.0
1979-07-26 15:28:28.820 ,4,0,0.,12.0,0.,12.0,0.,12.0,0.,12.0
1979-07-26 15:28:40.820 ,4,0,0.,12.0,0.,12.0,0.,12.0,0.,12.0
1979-07-26 15:28:52.820 ,5,0,0.,12.0,0.,12.0,0.,12.0,0.,12.0
1979-07-26 15:29:04.820 ,5,0,0.,12.0,0.,12.0,0.,12.0,0.,12.0
1979-07-26 15:29:16.820 ,5,0,0.,12.0,0.,12.0,0.,12.0,0.,12.0
1979-07-26 15:29:28.820 ,5,0,0.,12.0,0.,12.0,0.,12.0,0.,12.0
1979-07-26 15:29:40.820 ,6,0,0.,12.0,0.,12.0,0.,12.0,0.,12.0
1979-07-26 15:29:52.820 ,6,0,0.,12.0,0.,12.0,0.,12.0,0.,12.0
1979-07-26 15:30:04.820 ,6,0,0.,12.0,0.,12.0,0.,12.0,0.,12.0
1979-07-26 15:30:16.820 ,6,0,0.,12.0,0.,12.0,0.,12.0,0.,12.0
1979-07-26 15:30:28.820 ,7,0,0.,12.0,0.,12.0,0.,12.0,0.,12.0
1979-07-26 15:30:40.820 ,7,0,0.,12.0,0.,12.0,0.,12.0,0.,12.0
1979-07-26 15:30:52.820 ,7,0,0.,12.0,0.,12.0,0.,12.0,0.,12.0
1979-07-26 15:31:04.820 ,7,0,0.,12.0,0.,12.0,0.,12.0,0.,12.0
1979-07-26 15:31:16.820 ,3,1,0.,12.0,0.,12.0,0.,12.0,0.,12.0
1979-07-26 15:31:28.820 ,3,1,0.,12.0,0.,12.0,0.,12.0,0.,12.0
1979-07-26 15:31:40.820 ,0,1,0.,12.0,0.,12.0,0.,12.0,0.,12.0
1979-07-26 15:31:52.820 ,0,1,0.,12.0,0.,12.0,0.,12.0,0.,12.0
1979-07-26 15:32:04.820 ,4,1,0.,12.0,0.,12.0,0.,12.0,0.,12.0
1979-07-26 15:32:16.820 ,4,1,0.,12.0,0.,12.0,0.,12.0,0.,12.0
1979-07-26 15:32:28.820 ,7,1,0.,12.0,0.,12.0,0.,12.0,0.,12.0
1979-07-26 15:32:40.820 ,7,1,0.,12.0,0.,12.0,0.,12.0,0.,12.0
1979-07-26 15:32:52.820 ,3,1,0.,12.0,0.,12.0,0.,12.0,0.,12.0
1979-07-26 15:33:04.820 ,3,1,1.,12.0,0.,12.0,0.,12.0,0.,12.0
1979-07-26 15:33:16.820 ,0,1,0.,12.0,0.,12.0,0.,12.0,0.,12.0
1979-07-26 15:33:28.820 ,0,1,0.,12.0,0.,12.0,0.,12.0,0.,12.0
1979-07-26 15:33:40.820 ,4,1,0.,12.0,0.,12.0,0.,12.0,0.,12.0
1979-07-26 15:33:52.820 ,4,1,0.,12.0,0.,12.0,0.,12.0,0.,12.0
1979-07-26 15:34:04.820 ,7,1,0.,12.0,0.,12.0,0.,12.0,0.,12.0
1979-07-26 15:34:16.820 ,7,1,0.,12.0,0.,12.0,0.,12.0,0.,12.0
1979-07-26 15:34:28.820 ,3,1,0.,12.0,0.,12.0,0.,12.0,0.,12.0
1979-07-26 15:34:40.820 ,3,1,0.,12.0,0.,12.0,0.,12.0,0.,12.0
1979-07-26 15:34:52.820 ,0,1,0.,12.0,0.,12.0,0.,12.0,0.,12.0
1979-07-26 15:35:04.820 ,0,1,0.,12.0,0.,12.0,0.,12.0,0.,12.0
1979-07-26 15:35:16.820 ,4,1,0.,12.0,0.,12.0,0.,12.0,0.,12.0
1979-07-26 15:35:28.820 ,4,1,0.,12.0,0.,12.0,0.,12.0,0.,12.0
1979-07-26 15:35:40.820 ,7,1,0.,12.0,0.,12.0,0.,12.0,0.,12.0
1979-07-26 15:35:52.820 ,7,1,0.,12.0,0.,12.0,0.,12.0,0.,12.0
1979-07-26 15:36:04.820 ,3,1,0.,12.0,0.,12.0,0.,12.0,0.,12.0
1979-07-26 15:36:16.820 ,3,1,0.,12.0,0.,12.0,0.,12.0,0.,12.0
1979-07-26 15:36:28.820 ,0,1,0.,12.0,0.,12.0,0.,12.0,0.,12.0
1979-07-26 15:36:40.820 ,0,1,0.,12.0,0.,12.0,0.,12.0,0.,12.0
1979-07-26 15:36:52.820 ,4,1,0.,12.0,0.,12.0,0.,12.0,0.,12.0
1979-07-26 15:37:04.820 ,4,1,0.,12.0,0.,12.0,0.,12.0,0.,12.0
1979-07-26 15:37:16.820 ,7,1,0.,12.0,0.,12.0,0.,12.0,0.,12.0
1979-07-26 15:37:28.820 ,7,1,0.,12.0,0.,12.0,0.,12.0,0.,12.0
1979-07-26 15:37:40.820 ,3,1,0.,12.0,0.,12.0,0.,12.0,0.,12.0
1979-07-26 15:37:52.820 ,3,1,0.,12.0,0.,12.0,0.,12.0,0.,12.0
1979-07-26 15:38:04.820 ,0,1,0.,12.0,0.,12.0,0.,12.0,0.,12.0
1979-07-26 15:38:16.820 ,0,1,0.,12.0,0.,12.0,0.,12.0,0.,12.0
1979-07-26 15:38:28.820 ,4,1,0.,12.0,0.,12.0,0.,12.0,0.,12.0
1979-07-26 15:38:40.820 ,4,1,0.,12.0,0.,12.0,0.,12.0,0.,12.0
1979-07-26 15:38:52.820 ,7,1,0.,12.0,0.,12.0,0.,12.0,0.,12.0
1979-07-26 15:39:04.820 ,7,1,0.,12.0,0.,12.0,0.,12.0,0.,12.0
1979-07-26 15:39:16.820 ,3,1,0.,12.0,0.,12.0,0.,12.0,0.,12.0
1979-07-26 15:39:28.820 ,3,1,0.,12.0,0.,12.0,0.,12.0,0.,12.0
1979-07-26 15:39:40.820 ,0,1,0.,12.0,0.,12.0,0.,12.0,0.,12.0
1979-07-26 15:39:52.820 ,0,1,0.,12.0,0.,12.0,0.,12.0,0.,12.0
1979-07-26 15:40:04.820 ,4,1,0.,12.0,0.,12.0,0.,12.0,0.,12.0
1979-07-26 15:40:16.820 ,4,1,0.,12.0,0.,12.0,0.,12.0,0.,12.0
1979-07-26 15:40:28.820 ,7,1,0.,12.0,0.,12.0,0.,12.0,0.,12.0
1979-07-26 15:40:40.820 ,7,1,0.,12.0,0.,12.0,0.,12.0,0.,12.0
1979-07-26 15:40:52.820 ,3,1,0.,12.0,0.,12.0,0.,12.0,0.,12.0
1979-07-26 15:41:04.820 ,3,1,0.,12.0,0.,12.0,0.,12.0,0.,12.0
1979-07-26 15:41:16.820 ,0,1,0.,12.0,0.,12.0,0.,12.0,0.,12.0
1979-07-26 15:41:28.820 ,0,1,0.,12.0,0.,12.0,0.,12.0,0.,12.0
1979-07-26 15:41:40.820 ,0,0,0.,12.0,0.,12.0,0.,12.0,0.,12.0
1979-07-26 15:41:52.820 ,0,0,0.,12.0,0.,12.0,0.,12.0,0.,12.0
1979-07-26 15:42:04.820 ,0,0,0.,12.0,0.,12.0,0.,12.0,0.,12.0
1979-07-26 15:42:16.820 ,0,0,0.,12.0,0.,12.0,0.,12.0,0.,12.0
1979-07-26 15:42:28.820 ,5,0,0.,12.0,0.,12.0,0.,12.0,0.,12.0
1979-07-26 15:42:40.820 ,5,0,0.,12.0,0.,12.0,0.,12.0,0.,12.0
1979-07-26 15:42:52.820 ,5,0,0.,12.0,0.,12.0,0.,12.0,0.,12.0
1979-07-26 15:43:04.820 ,5,0,0.,12.0,0.,12.0,0.,12.0,0.,12.0
1979-07-26 15:43:16.820 ,4,0,0.,12.0,0.,12.0,0.,12.0,0.,12.0
1979-07-26 15:43:28.820 ,4,0,0.,12.0,0.,12.0,0.,12.0,0.,12.0
1979-07-26 15:43:40.820 ,4,0,0.,12.0,0.,12.0,0.,12.0,0.,12.0
1979-07-26 15:43:52.820 ,4,0,0.,12.0,0.,12.0,0.,12.0,0.,12.0
1979-07-26 15:44:04.820 ,3,0,0.,12.0,0.,12.0,0.,12.0,0.,12.0
1979-07-26 15:44:16.820 ,3,0,0.,12.0,0.,12.0,0.,12.0,0.,12.0
1979-07-26 15:44:28.820 ,3,0,0.,12.0,0.,12.0,0.,12.0,0.,12.0
1979-07-26 15:44:40.820 ,3,0,0.,12.0,0.,12.0,0.,12.0,0.,12.0
1979-07-26 15:44:52.820 ,2,0,0.,12.0,0.,12.0,0.,12.0,0.,12.0
1979-07-26 15:45:04.820 ,2,0,0.,12.0,0.,12.0,0.,12.0,0.,12.0
1979-07-26 15:45:16.820 ,2,0,0.,12.0,0.,12.0,0.,12.0,0.,12.0
1979-07-26 15:45:28.820 ,2,0,0.,12.0,0.,12.0,0.,12.0,0.,12.0
1979-07-26 15:45:40.820 ,1,0,0.,12.0,0.,12.0,0.,12.0,0.,12.0
1979-07-26 15:45:52.820 ,1,0,0.,12.0,0.,12.0,0.,12.0,0.,12.0
1979-07-26 15:46:04.820 ,1,0,0.,12.0,0.,12.0,0.,12.0,0.,12.0
1979-07-26 15:46:16.820 ,1,0,0.,12.0,0.,12.0,0.,12.0,0.,12.0
1979-07-26 15:46:28.820 ,0,0,0.,12.0,0.,12.0,0.,12.0,0.,12.0
1979-07-26 15:46:40.820 ,0,0,0.,12.0,0.,12.0,0.,12.0,0.,12.0
1979-07-26 15:46:52.820 ,0,0,0.,12.0,0.,12.0,0.,12.0,0.,12.0
1979-07-26 15:47:04.820 ,0,0,0.,12.0,0.,12.0,0.,12.0,0.,12.0
1979-07-26 15:47:16.820 ,0,0,0.,12.0,0.,12.0,0.,12.0,0.,12.0
1979-07-26 15:47:28.820 ,0,0,0.,12.0,0.,12.0,0.,12.0,0.,12.0
1979-07-26 15:47:40.820 ,0,0,0.,12.0,0.,12.0,0.,12.0,0.,12.0
1979-07-26 15:47:52.820 ,0,0,1.,12.0,0.,12.0,0.,12.0,0.,12.0
1979-07-26 15:48:04.820 ,1,0,0.,12.0,0.,12.0,0.,12.0,0.,12.0
1979-07-26 15:48:16.820 ,1,0,0.,12.0,0.,12.0,0.,12.0,0.,12.0
1979-07-26 15:48:28.820 ,1,0,0.,12.0,0.,12.0,0.,12.0,0.,12.0
1979-07-26 15:48:40.820 ,1,0,0.,12.0,0.,12.0,0.,12.0,0.,12.0
1979-07-26 15:48:52.820 ,2,0,0.,12.0,0.,12.0,0.,12.0,0.,12.0
1979-07-26 15:49:04.820 ,2,0,0.,12.0,0.,12.0,0.,12.0,0.,12.0
1979-07-26 15:49:16.820 ,2,0,0.,12.0,0.,12.0,0.,12.0,0.,12.0
1979-07-26 15:49:28.820 ,2,0,0.,12.0,0.,12.0,0.,12.0,0.,12.0
1979-07-26 15:49:40.820 ,3,0,0.,12.0,0.,12.0,0.,12.0,0.,12.0
1979-07-26 15:49:52.820 ,3,0,0.,12.0,0.,12.0,0.,12.0,0.,12.0
1979-07-26 15:50:04.820 ,3,0,0.,12.0,0.,12.0,0.,12.0,0.,12.0
1979-07-26 15:50:16.820 ,3,0,0.,12.0,0.,12.0,0.,12.0,0.,12.0
1979-07-26 15:50:28.820 ,4,0,0.,12.0,0.,12.0,0.,12.0,0.,12.0
1979-07-26 15:50:40.820 ,4,0,0.,12.0,0.,12.0,0.,12.0,0.,12.0
1979-07-26 15:50:52.820 ,4,0,0.,12.0,0.,12.0,0.,12.0,0.,12.0
1979-07-26 15:51:04.820 ,4,0,0.,12.0,0.,12.0,0.,12.0,0.,12.0
1979-07-26 15:51:16.820 ,5,0,0.,12.0,0.,12.0,0.,12.0,0.,12.0
1979-07-26 15:51:28.820 ,5,0,0.,12.0,0.,12.0,0.,12.0,0.,12.0
1979-07-26 15:51:40.820 ,5,0,0.,12.0,0.,12.0,0.,12.0,0.,12.0
1979-07-26 15:51:52.820 ,5,0,0.,12.0,0.,12.0,0.,12.0,0.,12.0
1979-07-26 15:52:04.820 ,6,0,0.,12.0,0.,12.0,0.,12.0,0.,12.0
1979-07-26 15:52:16.820 ,6,0,0.,12.0,0.,12.0,0.,12.0,0.,12.0
1979-07-26 15:52:28.820 ,6,0,0.,12.0,0.,12.0,0.,12.0,0.,12.0
1979-07-26 15:52:40.820 ,6,0,0.,12.0,0.,12.0,0.,12.0,0.,12.0
1979-07-26 15:52:52.820 ,7,0,0.,12.0,0.,12.0,0.,12.0,0.,12.0
1979-07-26 15:53:04.820 ,7,0,0.,12.0,0.,12.0,0.,12.0,0.,12.0
1979-07-26 15:53:16.820 ,7,0,0.,12.0,0.,12.0,0.,12.0,0.,12.0
1979-07-26 15:53:28.820 ,7,0,0.,12.0,0.,12.0,0.,12.0,0.,12.0
1979-07-26 15:53:40.820 ,7,0,0.,12.0,0.,12.0,0.,12.0,0.,12.0
1979-07-26 15:53:52.820 ,7,0,0.,12.0,0.,12.0,0.,12.0,0.,12.0
1979-07-26 15:54:04.820 ,7,0,0.,12.0,0.,12.0,0.,12.0,0.,12.0
1979-07-26 15:54:16.820 ,7,0,0.,12.0,0.,12.0,0.,12.0,0.,12.0
1979-07-26 15:54:28.820 ,6,0,0.,12.0,0.,12.0,0.,12.0,0.,12.0
1979-07-26 15:54:40.820 ,6,0,0.,12.0,0.,12.0,0.,12.0,0.,12.0
1979-07-26 15:54:52.820 ,6,0,0.,12.0,0.,12.0,0.,12.0,0.,12.0
1979-07-26 15:55:04.820 ,6,0,0.,12.0,0.,12.0,0.,12.0,0.,12.0
1979-07-26 15:55:16.820 ,5,0,0.,12.0,0.,12.0,0.,12.0,0.,12.0
1979-07-26 15:55:28.820 ,5,0,0.,12.0,0.,12.0,0.,12.0,0.,12.0
1979-07-26 15:55:40.820 ,5,0,0.,12.0,0.,12.0,0.,12.0,0.,12.0
1979-07-26 15:55:52.820 ,5,0,0.,12.0,0.,12.0,0.,12.0,0.,12.0
1979-07-26 15:56:04.820 ,4,0,0.,12.0,0.,12.0,0.,12.0,0.,12.0
1979-07-26 15:56:16.820 ,4,0,0.,12.0,0.,12.0,0.,12.0,0.,12.0
1979-07-26 15:56:28.820 ,4,0,0.,12.0,0.,12.0,0.,12.0,0.,12.0
1979-07-26 15:56:40.820 ,4,0,0.,12.0,0.,12.0,0.,12.0,0.,12.0
1979-07-26 15:56:52.820 ,3,0,0.,12.0,0.,12.0,0.,12.0,0.,12.0
1979-07-26 15:57:04.820 ,3,0,0.,12.0,0.,12.0,0.,12.0,0.,12.0
1979-07-26 15:57:16.820 ,3,0,0.,12.0,0.,12.0,0.,12.0,0.,12.0
1979-07-26 15:57:28.820 ,3,0,0.,12.0,0.,12.0,0.,12.0,0.,12.0
1979-07-26 15:57:40.820 ,2,0,0.,12.0,0.,12.0,0.,12.0,0.,12.0
1979-07-26 15:57:52.820 ,2,0,0.,12.0,0.,12.0,0.,12.0,0.,12.0
1979-07-26 15:58:04.820 ,2,0,0.,12.0,0.,12.0,0.,12.0,0.,12.0
1979-07-26 15:58:16.820 ,2,0,0.,12.0,0.,12.0,0.,12.0,0.,12.0
1979-07-26 15:58:28.820 ,1,0,0.,12.0,0.,12.0,0.,12.0,0.,12.0
1979-07-26 15:58:40.820 ,1,0,0.,12.0,0.,12.0,0.,12.0,0.,12.0
1979-07-26 15:58:52.820 ,1,0,0.,12.0,0.,12.0,0.,12.0,0.,12.0
1979-07-26 15:59:04.820 ,1,0,0.,12.0,0.,12.0,0.,12.0,0.,12.0
1979-07-26 15:59:16.820 ,0,0,0.,12.0,0.,12.0,0.,12.0,0.,12.0
1979-07-26 15:59:28.820 ,0,0,0.,12.0,0.,12.0,0.,12.0,0.,12.0
1979-07-26 15:59:40.820 ,0,0,0.,12.0,0.,12.0,0.,12.0,0.,12.0
1979-07-26 15:59:52.820 ,0,0,0.,12.0,0.,12.0,0.,12.0,0.,12.0
1979-07-26 16:00:04.820 ,0,0,0.,12.0,0.,12.0,0.,12.0,0.,12.0
1979-07-26 16:00:16.820 ,0,0,0.,12.0,0.,12.0,0.,12.0,0.,12.0
1979-07-26 16:00:28.820 ,0,0,0.,12.0,0.,12.0,0.,12.0,0.,12.0
1979-07-26 16:00:40.820 ,0,0,0.,12.0,0.,12.0,0.,12.0,0.,12.0
1979-07-26 16:00:52.820 ,1,0,0.,12.0,0.,12.0,0.,12.0,0.,12.0
1979-07-26 16:01:04.820 ,1,0,0.,12.0,0.,12.0,0.,12.0,0.,12.0
1979-07-26 16:01:16.820 ,1,0,0.,12.0,0.,12.0,0.,12.0,0.,12.0
1979-07-26 16:01:28.820 ,1,0,0.,12.0,0.,12.0,0.,12.0,0.,12.0
1979-07-26 16:01:40.820 ,2,0,0.,12.0,0.,12.0,0.,12.0,0.,12.0
1979-07-26 16:01:52.820 ,2,0,0.,12.0,0.,12.0,0.,12.0,0.,12.0
1979-07-26 16:02:04.820 ,2,0,0.,12.0,0.,12.0,0.,12.0,0.,12.0
1979-07-26 16:02:16.820 ,2,0,0.,12.0,0.,12.0,0.,12.0,0.,12.0
1979-07-26 16:02:28.820 ,3,0,0.,12.0,0.,12.0,0.,12.0,0.,12.0
1979-07-26 16:02:40.820 ,3,0,0.,12.0,0.,12.0,0.,12.0,0.,12.0
1979-07-26 16:02:52.820 ,3,0,0.,12.0,0.,12.0,0.,12.0,0.,12.0
1979-07-26 16:03:04.820 ,3,0,0.,12.0,0.,12.0,0.,12.0,0.,12.0
1979-07-26 16:03:16.820 ,4,0,0.,12.0,0.,12.0,0.,12.0,0.,12.0
1979-07-26 16:03:28.820 ,4,0,0.,12.0,0.,12.0,0.,12.0,0.,12.0
1979-07-26 16:03:40.820 ,4,0,0.,12.0,0.,12.0,0.,12.0,0.,12.0
1979-07-26 16:03:52.820 ,4,0,0.,12.0,0.,12.0,0.,12.0,0.,12.0
1979-07-26 16:04:04.820 ,5,0,0.,12.0,0.,12.0,0.,12.0,0.,12.0
1979-07-26 16:04:16.820 ,5,0,0.,12.0,0.,12.0,0.,12.0,0.,12.0
1979-07-26 16:04:28.820 ,5,0,0.,12.0,0.,12.0,0.,12.0,0.,12.0
1979-07-26 16:04:40.820 ,5,0,0.,12.0,0.,12.0,0.,12.0,0.,12.0
1979-07-26 16:04:52.820 ,6,0,0.,12.0,0.,12.0,0.,12.0,0.,12.0
1979-07-26 16:05:04.820 ,6,0,0.,12.0,0.,12.0,0.,12.0,0.,12.0
1979-07-26 16:05:16.820 ,6,0,0.,12.0,0.,12.0,0.,12.0,0.,12.0
1979-07-26 16:05:28.820 ,6,0,0.,12.0,0.,12.0,0.,12.0,0.,12.0
1979-07-26 16:05:40.820 ,7,0,0.,12.0,0.,12.0,0.,12.0,0.,12.0
1979-07-26 16:05:52.820 ,7,0,0.,12.0,0.,12.0,0.,12.0,0.,12.0
1979-07-26 16:06:04.820 ,7,0,0.,12.0,0.,12.0,0.,12.0,0.,12.0
1979-07-26 16:06:16.820 ,7,0,0.,12.0,0.,12.0,0.,12.0,0.,12.0
1979-07-26 16:06:28.820 ,7,0,0.,12.0,0.,12.0,0.,12.0,0.,12.0
1979-07-26 16:06:40.820 ,7,0,0.,12.0,0.,12.0,0.,12.0,0.,12.0
1979-07-26 16:06:52.820 ,7,0,0.,12.0,0.,12.0,0.,12.0,0.,12.0
1979-07-26 16:07:04.820 ,7,0,0.,12.0,0.,12.0,0.,12.0,0.,12.0
1979-07-26 16:07:16.820 ,6,0,0.,12.0,0.,12.0,0.,12.0,0.,12.0
1979-07-26 16:07:28.820 ,6,0,0.,12.0,0.,12.0,0.,12.0,0.,12.0
1979-07-26 16:07:40.820 ,6,0,0.,12.0,0.,12.0,0.,12.0,0.,12.0
1979-07-26 16:07:52.820 ,6,0,0.,12.0,0.,12.0,0.,12.0,0.,12.0
1979-07-26 16:08:04.820 ,5,0,0.,12.0,0.,12.0,0.,12.0,0.,12.0
1979-07-26 16:08:16.820 ,5,0,0.,12.0,0.,12.0,0.,12.0,0.,12.0
1979-07-26 16:08:28.820 ,5,0,0.,12.0,0.,12.0,0.,12.0,0.,12.0
1979-07-26 16:08:40.820 ,5,0,0.,12.0,0.,12.0,0.,12.0,0.,12.0
1979-07-26 16:08:52.820 ,4,0,0.,12.0,0.,12.0,0.,12.0,0.,12.0
1979-07-26 16:09:04.820 ,4,0,0.,12.0,0.,12.0,0.,12.0,0.,12.0
1979-07-26 16:09:16.820 ,4,0,0.,12.0,0.,12.0,0.,12.0,0.,12.0
1979-07-26 16:09:28.820 ,4,0,0.,12.0,0.,12.0,0.,12.0,0.,12.0
1979-07-26 16:09:40.820 ,3,0,0.,12.0,0.,12.0,0.,12.0,0.,12.0
1979-07-26 16:09:52.820 ,3,0,0.,12.0,0.,12.0,0.,12.0,0.,12.0
1979-07-26 16:10:04.820 ,3,0,0.,12.0,0.,12.0,0.,12.0,0.,12.0
1979-07-26 16:10:16.820 ,3,0,0.,12.0,0.,12.0,0.,12.0,0.,12.0
1979-07-26 16:10:28.820 ,2,0,0.,12.0,0.,12.0,0.,12.0,0.,12.0
1979-07-26 16:10:40.820 ,2,0,0.,12.0,0.,12.0,0.,12.0,0.,12.0
1979-07-26 16:10:52.820 ,2,0,0.,12.0,0.,12.0,0.,12.0,0.,12.0
1979-07-26 16:11:04.820 ,2,0,0.,12.0,0.,12.0,0.,12.0,0.,12.0
1979-07-26 16:11:16.820 ,1,0,0.,12.0,0.,12.0,0.,12.0,0.,12.0
1979-07-26 16:11:28.820 ,1,0,0.,12.0,0.,12.0,0.,12.0,0.,12.0
1979-07-26 16:11:40.820 ,1,0,0.,12.0,0.,12.0,0.,12.0,0.,12.0
1979-07-26 16:11:52.820 ,1,0,0.,12.0,0.,12.0,0.,12.0,0.,12.0
1979-07-26 16:12:04.820 ,0,0,0.,12.0,0.,12.0,0.,12.0,0.,12.0
1979-07-26 16:12:16.820 ,0,0,0.,12.0,0.,12.0,0.,12.0,0.,12.0
1979-07-26 16:12:28.820 ,0,0,0.,12.0,0.,12.0,0.,12.0,0.,12.0
1979-07-26 16:12:40.820 ,0,0,0.,12.0,0.,12.0,0.,12.0,0.,12.0
1979-07-26 16:12:52.820 ,0,0,0.,12.0,0.,12.0,0.,12.0,0.,12.0
1979-07-26 16:13:04.820 ,0,0,0.,12.0,0.,12.0,0.,12.0,0.,12.0
1979-07-26 16:13:16.820 ,0,0,0.,12.0,0.,12.0,0.,12.0,0.,12.0
1979-07-26 16:13:28.820 ,0,0,0.,12.0,0.,12.0,0.,12.0,0.,12.0
1979-07-26 16:13:40.820 ,1,0,0.,12.0,0.,12.0,0.,12.0,0.,12.0
1979-07-26 16:13:52.820 ,1,0,0.,12.0,0.,12.0,0.,12.0,0.,12.0
1979-07-26 16:14:04.820 ,1,0,0.,12.0,0.,12.0,0.,12.0,0.,12.0
1979-07-26 16:14:16.820 ,1,0,0.,12.0,0.,12.0,0.,12.0,0.,12.0
1979-07-26 16:14:28.820 ,2,0,0.,12.0,0.,12.0,0.,12.0,0.,12.0
1979-07-26 16:14:40.820 ,2,0,0.,12.0,0.,12.0,0.,12.0,0.,12.0
1979-07-26 16:14:52.820 ,2,0,0.,12.0,0.,12.0,0.,12.0,0.,12.0
1979-07-26 16:15:04.820 ,2,0,0.,12.0,0.,12.0,0.,12.0,0.,12.0
1979-07-26 16:15:16.820 ,3,0,0.,12.0,0.,12.0,0.,12.0,0.,12.0
1979-07-26 16:15:28.820 ,3,0,0.,12.0,0.,12.0,0.,12.0,0.,12.0
1979-07-26 16:15:40.820 ,3,0,0.,12.0,0.,12.0,0.,12.0,0.,12.0
1979-07-26 16:15:52.820 ,3,0,0.,12.0,0.,12.0,0.,12.0,0.,12.0
1979-07-26 16:16:04.820 ,4,0,0.,12.0,0.,12.0,0.,12.0,0.,12.0
1979-07-26 16:16:16.820 ,4,0,0.,12.0,0.,12.0,0.,12.0,0.,12.0
1979-07-26 16:16:28.820 ,4,0,0.,12.0,0.,12.0,0.,12.0,0.,12.0
1979-07-26 16:16:40.820 ,4,0,0.,12.0,0.,12.0,0.,12.0,0.,12.0
1979-07-26 16:16:52.820 ,5,0,0.,12.0,0.,12.0,0.,12.0,0.,12.0
1979-07-26 16:17:04.820 ,5,0,0.,12.0,0.,12.0,0.,12.0,0.,12.0
1979-07-26 16:17:16.820 ,5,0,0.,12.0,0.,12.0,0.,12.0,0.,12.0
1979-07-26 16:17:28.820 ,5,0,0.,12.0,0.,12.0,0.,12.0,0.,12.0